Wind_Speed
34 36 38 39 40 40 42 44 47 49 51 53 56 56 57 60 62 63 65 69 70 70 72 76 79 80 81 82 85 89 93 94 95 98 101 104 106 107 107 107 106 102 99 94 89 83 78 71 65 61 57 54 51 49 47 44 43 43 45 48 51 54 57 60 63 67 69 72 75 79 82 86 89 92 95 98 100 102 105 108 110 113 115 116 119 122
34 35 37 39 41 42 44 46 49 51 52 55 58 60 59 60 63 65 67 70 73 76 77 77 78 80 81 82 85 90 94 94 95 98 101 104 106 108 109 109 109 107 103 99 93 87 82 76 70 64 61 58 54 51 49 46 44 42 42 44 47 50 53 55 58 62 65 68 71 75 78 81 84 87 91 94 97 99 101 104 106 109 112 114 116 118
32 34 37 39 41 43 46 48 51 53 54 56 58 61 62 60 60 65 68 71 75 79 81 78 77 80 81 83 86 90 93 96 97 99 100 102 105 108 111 111 111 110 108 103 98 93 87 81 75 69 64 61 58 56 52 49 46 43 42 42 43 45 48 52 54 56 60 63 67 70 73 76 79 82 86 89 93 95 98 101 102 105 107 110 112 115
31 33 36 39 41 44 47 50 52 55 56 57 58 60 63 61 60 63 68 72 74 78 80 79 78 79 80 83 87 89 92 96 98 99 100 102 106 109 112 114 113 113 112 108 104 99 93 87 81 74 68 63 61 59 57 53 49 45 42 41 41 42 44 47 50 51 54 57 61 64 68 72 75 78 82 85 88 91 94 97 100 102 103 105 107 110
32 33 36 39 42 45 48 50 53 55 57 58 60 61 63 65 66 66 68 72 75 76 78 80 79 79 80 83 86 89 92 94 97 99 102 104 106 109 113 116 117 117 115 113 109 105 99 93 87 80 72 66 62 59 58 57 54 50 46 42 40 40 42 44 45 47 49 52 55 58 62 66 69 73 77 80 83 86 89 93 96 99 101 103 104 105
31 34 37 40 42 45 47 50 53 56 58 60 62 63 65 68 70 70 69 73 76 77 78 81 81 80 82 86 88 89 91 95 98 101 103 105 108 112 115 117 118 119 119 117 114 110 105 99 93 86 78 70 64 60 57 56 56 54 50 46 43 40 40 41 43 44 46 48 50 53 56 59 63 67 72 75 78 81 84 88 92 95 98 100 101 102
31 34 37 40 43 46 48 51 54 56 58 61 63 65 68 70 72 72 72 74 77 78 79 82 83 84 85 88 90 90 91 96 100 103 104 107 110 113 115 117 119 121 121 120 118 114 110 106 99 92 85 77 69 63 59 55 54 53 51 49 46 43 40 39 40 41 43 45 46 49 52 55 58 62 66 69 73 77 81 84 88 91 94 96 98 100
32 35 38 41 44 47 49 52 54 56 59 61 64 66 68 69 72 74 75 76 77 79 80 83 86 89 89 90 91 92 93 97 102 104 107 108 110 112 114 117 119 121 123 123 121 119 114 110 105 98 91 83 75 68 63 58 55 53 52 50 48 46 44 41 39 37 39 42 43 45 47 50 54 57 61 64 68 71 76 79 82 86 89 91 93 96
35 38 40 42 45 47 50 52 54 56 59 61 63 65 67 69 72 75 77 77 77 79 81 84 87 89 90 91 91 91 94 98 102 105 107 108 110 111 114 117 120 122 123 124 124 122 118 114 108 103 96 90 82 74 68 63 59 56 53 51 49 47 46 44 41 38 36 37 39 42 44 47 50 52 55 59 63 66 69 72 76 80 84 87 89 92
38 40 41 43 46 48 50 53 55 57 59 61 62 64 67 69 71 74 77 78 78 80 82 85 88 89 90 91 91 93 95 98 101 104 106 108 109 111 114 117 120 122 123 125 125 124 121 117 112 107 101 95 88 81 73 68 64 60 56 53 50 48 46 45 43 41 38 36 36 38 40 43 46 48 50 54 57 61 64 67 70 74 77 81 84 87
39 41 43 45 46 48 50 54 56 58 59 61 62 64 66 68 70 72 76 78 79 81 84 87 90 91 91 90 92 95 96 98 100 102 104 107 109 111 114 117 119 122 123 124 125 125 123 119 114 110 105 99 92 85 77 71 66 62 59 56 52 49 46 44 43 42 40 38 36 36 37 39 42 44 47 49 52 56 59 62 65 68 71 74 78 81
39 41 44 46 48 50 52 54 57 58 60 62 63 64 66 67 69 72 75 79 81 83 85 87 90 92 92 92 93 95 96 97 98 100 103 106 109 112 114 117 119 121 123 124 124 124 124 121 117 112 107 102 95 89 81 74 68 64 61 58 55 52 47 44 42 40 40 38 37 36 36 36 38 40 43 46 49 51 54 57 60 63 66 69 72 75
40 42 44 47 49 51 53 55 58 60 61 62 63 64 65 66 68 70 73 78 81 83 85 87 89 90 92 93 93 94 96 96 97 100 104 107 110 112 114 117 119 121 123 123 124 124 123 123 120 115 109 104 99 93 86 78 71 66 62 59 57 54 50 46 43 40 39 38 37 36 36 36 36 38 40 42 45 48 50 53 56 59 61 64 67 70
41 44 46 48 51 53 55 57 59 61 62 64 64 65 67 68 69 71 73 76 80 83 84 87 88 89 91 93 93 94 95 96 97 100 104 108 110 112 114 117 119 121 122 123 124 124 123 123 122 118 112 106 102 97 91 84 76 69 64 60 58 55 53 49 45 42 40 38 37 36 35 35 36 36 37 39 42 44 47 49 51 54 56 59 62 65
43 46 49 51 54 56 58 59 60 62 63 65 67 69 70 71 73 75 76 77 80 82 83 85 88 90 91 93 93 92 94 95 97 99 103 107 110 112 114 116 118 120 122 123 124 124 124 124 123 121 116 109 104 100 94 88 81 74 67 62 59 56 54 52 48 44 42 40 38 37 36 35 36 36 36 37 39 41 43 46 48 50 52 54 57 60
47 50 53 55 57 59 61 63 63 63 65 67 69 71 72 73 74 75 77 78 80 82 84 85 88 91 91 92 92 91 92 95 96 98 102 106 110 113 115 116 117 119 121 123 124 124 125 124 123 122 119 114 107 103 98 93 87 80 72 66 61 57 55 53 50 46 43 41 40 38 37 36 36 36 36 35 36 38 40 42 45 46 48 50 52 55
49 52 55 57 60 61 63 65 66 66 67 69 71 71 72 74 75 75 75 77 79 82 85 86 87 90 91 91 91 91 92 95 97 98 102 106 110 112 114 116 117 119 120 122 123 124 125 125 124 122 121 118 113 106 102 97 91 85 78 71 65 60 56 54 51 48 45 43 41 40 39 38 37 36 36 35 35 36 37 39 41 43 45 46 48 50
50 53 56 58 61 63 64 66 68 69 70 71 72 72 73 75 77 77 76 76 78 80 83 85 86 88 90 91 92 92 93 95 96 98 101 106 109 111 113 115 117 118 120 122 123 125 125 126 125 123 122 121 118 112 105 99 95 89 83 76 70 64 59 56 54 51 48 45 43 42 41 40 39 37 36 35 35 35 35 37 38 40 42 43 44 46
51 54 56 59 61 64 66 67 68 70 71 71 73 74 75 76 78 80 80 79 79 80 82 84 86 88 91 92 93 93 92 94 95 97 100 105 107 109 112 114 116 118 119 122 124 126 127 127 126 125 124 123 121 118 111 103 97 92 87 80 74 68 63 59 56 53 50 48 45 44 43 42 41 39 37 35 33 33 34 34 35 36 38 40 41 42
54 56 58 61 62 64 67 69 69 70 71 72 72 74 75 76 78 80 83 83 82 82 83 84 86 88 90 92 93 92 91 92 94 95 98 103 106 108 111 113 116 118 119 121 123 125 127 127 127 127 126 124 123 121 117 109 101 95 90 85 78 71 66 61 57 54 51 49 46 44 42 41 41 40 39 38 35 33 32 32 33 33 35 36 38 39
57 58 60 63 65 66 67 69 71 72 74 74 73 74 75 76 78 80 82 84 84 84 86 87 87 88 90 91 92 92 91 92 94 95 98 102 105 108 111 113 115 117 119 121 123 125 127 128 129 128 127 126 124 123 121 116 107 99 93 88 82 75 69 64 59 55 53 50 47 45 43 41 40 40 39 39 38 35 33 31 31 32 32 33 35 37
59 60 62 64 67 69 69 71 72 73 75 76 76 75 75 77 79 80 81 84 85 85 86 88 88 87 88 90 92 93 92 92 95 96 97 101 104 107 110 113 115 117 119 121 122 124 126 128 130 130 129 128 126 125 123 121 114 105 97 91 87 81 74 68 63 58 54 51 49 46 44 41 40 39 39 39 38 37 35 33 31 30 31 32 33 35
61 63 64 66 68 70 71 71 72 73 74 76 77 77 77 78 80 81 82 84 86 86 86 87 88 87 87 89 92 93 92 92 95 96 97 100 103 106 109 112 115 117 119 120 122 124 126 129 130 130 130 129 127 126 125 123 120 113 103 95 90 85 79 72 67 62 57 54 51 48 45 42 40 39 38 38 37 36 35 34 31 30 30 30 31 33
65 65 66 66 67 70 71 71 72 72 72 74 77 78 78 78 80 82 83 84 86 87 86 85 88 89 88 89 92 94 93 93 95 96 96 99 102 105 109 112 114 116 118 120 122 124 126 128 130 130 130 129 128 127 126 125 123 119 111 101 93 88 84 77 71 66 61 57 54 51 47 44 41 38 37 36 36 35 34 33 32 30 29 29 30 31
68 69 69 68 68 69 71 71 71 72 73 73 76 78 79 80 80 82 84 84 85 87 86 84 86 89 89 89 91 93 94 93 94 95 95 98 102 105 108 111 113 115 117 119 122 124 126 127 129 130 130 130 129 128 127 127 125 123 117 108 99 92 87 82 75 69 65 60 57 54 51 47 43 40 38 36 35 34 33 32 31 30 29 28 29 29
70 72 72 72 71 71 72 73 73 74 75 76 77 79 81 82 82 83 84 84 84 86 87 86 84 86 88 88 89 92 93 92 92 94 95 97 101 105 107 110 112 114 116 118 121 123 126 127 128 130 130 130 129 128 128 128 127 125 121 114 106 97 90 85 80 74 68 64 60 57 54 51 47 43 40 37 35 34 33 32 30 29 28 27 27 28
70 72 74 75 74 74 75 76 77 77 78 79 79 81 83 84 84 84 84 85 85 85 86 87 85 84 85 87 87 89 91 90 90 92 94 97 101 104 106 109 111 113 116 117 120 123 125 127 129 130 131 130 129 128 128 128 128 126 123 118 111 103 95 89 84 78 72 67 63 59 57 54 51 47 43 40 37 35 34 33 31 29 27 26 26 27
69 70 73 75 75 75 76 77 78 79 80 81 81 82 83 84 85 85 84 85 85 84 84 85 85 84 84 85 86 87 88 87 87 90 93 96 100 102 105 108 110 113 115 117 120 122 124 127 129 130 131 130 129 128 128 128 129 127 125 121 115 108 101 93 87 82 77 70 66 62 59 56 54 51 47 43 40 37 35 33 32 30 27 25 24 25
69 69 71 74 75 76 77 78 79 81 82 82 83 83 83 84 85 85 84 84 85 84 83 83 84 83 83 83 84 86 87 85 86 89 92 95 98 101 104 107 110 112 115 117 119 121 124 126 128 130 130 129 128 128 128 128 128 128 126 122 117 111 105 98 91 85 81 75 69 65 61 58 56 54 50 46 43 39 36 34 33 31 29 26 24 23
68 69 69 72 74 76 77 79 81 81 83 84 83 83 83 84 85 84 83 83 83 83 83 81 81 82 81 82 84 85 86 85 85 87 91 93 97 100 103 106 109 112 115 117 118 120 123 125 127 129 130 129 128 127 127 127 128 128 126 123 119 113 108 102 95 88 84 79 72 67 63 60 57 55 53 50 47 43 39 36 34 32 31 28 25 23
69 69 69 71 74 75 76 78 80 81 82 83 83 83 83 84 85 85 84 83 83 82 82 81 80 80 79 80 82 85 86 85 84 86 89 93 96 99 102 105 109 112 115 116 118 120 122 124 126 128 129 128 127 126 126 126 127 128 127 124 120 115 110 105 99 92 86 82 77 70 65 62 59 56 54 52 50 47 43 39 35 33 31 30 27 24
70 70 70 71 73 75 77 78 80 81 82 83 84 84 84 83 85 86 85 84 83 81 80 80 78 78 78 78 81 84 85 84 84 85 88 92 95 98 101 105 108 112 114 116 117 119 121 123 125 127 127 127 126 125 125 126 126 127 127 125 121 116 111 106 102 96 90 84 80 75 69 64 61 58 55 53 51 49 46 43 39 35 32 31 29 27
71 72 73 73 73 75 77 78 80 82 82 84 84 84 83 82 83 85 85 83 82 80 78 78 77 76 76 77 79 82 83 83 84 86 88 92 95 98 101 104 107 111 113 115 116 118 120 122 124 126 126 125 124 124 124 124 125 126 126 125 122 117 112 108 103 99 93 87 83 79 73 67 62 59 57 54 53 50 47 45 42 39 35 32 30 28
73 74 75 75 75 75 77 78 81 82 82 83 83 82 81 80 79 81 82 80 79 78 77 75 74 73 73 75 77 80 80 81 84 87 89 92 94 97 101 104 107 109 112 114 116 118 119 122 124 124 124 124 123 123 123 124 124 125 125 125 122 118 113 108 104 100 96 90 85 81 77 71 65 61 58 56 54 52 49 46 43 41 38 35 32 30
74 75 75 76 76 76 77 78 79 80 80 79 79 77 76 74 73 74 77 76 75 75 74 72 71 70 71 73 75 77 78 80 84 87 89 92 94 97 100 103 106 108 111 112 114 117 119 121 123 123 123 123 123 122 123 123 124 124 124 124 122 118 114 109 104 100 97 92 87 83 79 74 68 63 60 57 54 53 51 49 46 43 40 37 35 32
75 75 75 76 76 76 77 77 75 75 75 74 73 71 69 68 67 68 71 72 72 71 71 70 68 68 69 72 73 74 76 79 82 85 88 91 93 96 98 102 105 107 109 111 113 116 118 120 121 121 122 122 122 122 122 123 123 124 124 123 121 118 114 109 104 100 97 93 89 84 81 77 72 66 61 58 56 53 51 50 48 45 42 39 36 34
75 76 75 76 76 74 72 71 70 69 70 70 69 68 67 67 66 65 67 68 68 68 67 66 65 66 68 70 70 71 74 77 80 83 86 89 91 94 97 101 104 106 108 110 113 115 117 118 119 120 121 121 121 122 122 122 123 123 123 122 121 117 113 109 104 100 97 94 91 86 82 78 75 70 65 60 57 54 52 50 48 46 44 42 39 36
75 76 75 74 72 71 69 68 67 67 68 69 70 70 69 68 67 65 64 64 64 64 63 62 63 65 67 68 69 71 73 76 79 82 84 87 91 94 98 101 103 105 108 111 113 115 116 117 118 119 120 121 121 121 122 122 122 122 122 122 120 117 113 109 104 99 96 93 91 88 84 79 76 73 69 63 59 55 53 51 49 47 45 43 41 38
73 73 72 70 69 69 69 70 71 72 72 73 73 72 70 69 67 64 60 59 59 58 58 59 62 64 65 67 70 72 75 77 80 82 85 88 92 95 98 101 104 106 109 111 113 114 115 117 118 119 120 120 121 121 121 121 121 121 121 120 119 116 112 109 104 99 95 92 90 89 86 81 77 74 71 67 63 58 55 52 50 47 45 43 42 39
68 67 67 67 68 69 70 71 74 76 76 75 74 72 70 68 65 60 55 53 53 53 55 59 61 63 65 68 71 74 77 79 82 84 87 90 93 97 100 102 105 107 110 112 113 115 116 117 118 119 120 121 122 121 121 120 120 120 119 119 118 115 111 107 104 99 95 91 89 88 86 83 79 76 72 69 66 62 58 54 51 49 46 44 42 40
63 64 66 68 70 72 72 72 74 76 76 75 72 69 66 61 58 55 54 52 52 54 57 59 61 63 66 70 73 76 79 82 84 87 90 93 96 98 101 103 105 108 110 112 113 115 116 117 118 120 121 121 122 122 121 120 119 118 118 117 116 114 110 106 102 99 94 91 89 87 86 84 81 78 74 71 67 64 61 57 54 51 48 46 43 41
63 65 67 70 71 73 73 73 72 72 71 70 66 61 57 54 51 51 52 53 54 57 59 60 63 65 69 72 75 78 81 84 87 90 92 95 97 99 101 104 106 108 110 112 114 115 116 118 119 120 121 122 123 123 122 121 119 118 117 116 114 112 109 105 101 98 94 90 88 86 85 84 82 79 76 72 69 65 62 59 56 53 51 49 45 43
67 67 69 71 72 72 72 71 70 66 62 60 57 52 50 49 50 50 51 53 55 58 60 62 65 68 71 74 77 80 83 86 89 92 94 97 99 100 102 105 107 109 111 112 114 116 117 119 120 121 123 123 124 124 123 121 119 117 115 114 113 111 108 104 100 96 93 89 86 85 84 83 82 80 78 74 71 67 63 60 57 55 52 50 48 45
69 69 69 69 71 71 69 66 64 59 53 50 51 50 49 49 49 50 52 54 57 59 61 64 66 69 73 76 80 83 85 88 91 93 96 98 100 102 104 106 108 110 111 113 115 117 118 119 121 122 124 125 125 124 123 121 119 117 115 113 111 109 106 102 98 95 92 88 85 83 82 82 81 81 79 76 73 68 64 61 58 56 53 51 49 47
67 67 67 67 67 68 65 60 57 54 50 47 48 50 51 51 51 52 54 56 59 61 64 66 69 73 76 79 82 85 87 90 92 95 96 99 101 104 106 108 109 111 112 114 116 117 119 120 122 123 124 125 125 125 124 122 119 117 114 112 109 107 105 101 97 94 91 87 84 81 80 79 79 79 79 78 75 71 66 62 59 56 54 51 50 48
65 63 62 60 57 56 55 53 52 51 51 49 49 49 51 53 54 55 57 59 62 64 68 71 74 77 79 81 84 87 89 91 93 95 98 100 103 105 107 109 110 111 112 114 116 118 120 121 122 124 125 126 126 125 124 122 120 117 114 111 108 105 103 99 95 92 90 87 83 80 79 77 77 77 77 78 77 74 69 65 61 57 54 52 49 48
57 55 52 50 48 46 46 47 49 50 50 49 49 50 52 54 57 60 61 64 66 69 72 75 78 80 82 85 87 89 91 93 94 97 100 102 104 106 108 109 111 112 113 115 117 119 121 122 123 124 125 126 126 125 124 122 119 116 114 110 107 103 101 98 94 91 89 86 83 80 78 76 75 75 75 75 76 75 72 68 63 59 56 53 50 48
45 44 43 43 45 45 45 45 47 51 53 52 52 54 56 58 61 64 67 69 71 74 76 78 80 83 86 88 89 90 92 94 96 99 103 105 106 108 109 111 112 114 116 117 119 120 121 123 124 125 125 126 126 125 124 121 118 116 113 110 106 102 99 96 93 89 87 85 82 79 76 75 74 73 73 73 74 74 73 70 65 61 58 55 52 49
41 42 41 42 44 45 45 45 46 49 54 56 57 58 60 63 66 68 71 73 75 77 79 81 83 86 88 90 91 92 94 96 99 102 105 108 109 110 111 113 115 117 118 119 120 121 122 123 124 125 125 126 126 125 123 120 117 114 112 108 104 100 98 95 92 88 86 84 81 78 75 74 73 72 71 71 71 72 73 72 69 64 59 56 53 51
44 45 45 46 47 48 49 50 51 51 54 58 61 63 65 68 70 73 75 77 79 80 82 84 86 87 89 91 93 94 97 99 101 104 107 110 112 114 115 116 118 119 120 121 122 122 123 124 125 125 125 126 125 124 122 119 115 112 110 106 102 98 96 94 91 88 85 83 81 78 75 73 72 71 71 70 69 69 70 71 70 68 63 58 54 52
51 52 52 52 53 54 56 58 59 60 61 64 67 69 71 72 74 76 78 80 82 84 86 87 88 89 90 92 95 97 99 101 104 106 109 112 114 116 117 118 119 120 122 122 123 123 124 124 125 125 125 125 125 123 121 117 113 110 107 104 100 96 93 92 90 87 85 83 80 78 75 73 72 71 70 70 69 69 68 68 68 68 66 62 57 53
Wind_Direction
360 359 357 356 355 353 352 351 352 353 353 353 352 353 354 354 354 355 356 356 356 355 358 359 356 355 355 355 355 356 356 356 357 358 359 360 -0 0 0 1 1 1 1 360 358 357 355 351 347 343 339 335 331 326 320 314 307 298 291 284 279 275 270 266 264 262 260 258 256 255 253 252 251 251 251 251 249 248 248 247 247 248 248 247 247 246
358 356 355 354 352 351 352 351 352 352 352 353 352 352 353 353 353 354 356 356 357 357 359 359 356 355 354 353 355 356 356 356 358 359 1 2 2 2 2 2 2 2 2 2 1 359 358 355 351 347 343 339 335 332 327 322 316 308 299 290 284 279 274 270 266 263 261 259 257 256 254 253 251 251 250 250 251 250 249 248 247 246 247 247 247 246
355 355 354 353 352 352 351 351 351 351 352 352 351 351 350 351 353 354 355 356 358 359 359 357 355 354 353 353 355 356 356 357 358 359 1 2 4 4 4 3 3 3 3 3 3 1 0 359 355 351 347 343 339 336 332 328 323 316 308 300 290 283 278 274 270 266 263 261 259 258 256 255 254 252 251 250 249 249 249 249 248 247 246 246 246 246
354 354 353 353 352 351 350 350 351 351 351 350 349 350 349 349 352 354 355 356 358 359 357 355 355 354 353 354 356 356 357 358 358 359 0 2 4 5 5 5 4 4 4 4 3 3 2 1 359 355 351 347 343 339 336 333 329 324 316 308 299 291 283 278 273 270 266 263 261 259 257 256 255 253 252 251 250 249 249 249 249 249 248 247 246 245
354 353 352 352 351 350 350 350 350 350 349 348 348 349 348 349 351 353 355 356 357 357 355 355 355 353 353 355 356 357 358 358 358 359 0 2 4 6 7 6 6 5 5 5 4 4 4 3 1 358 354 350 347 343 339 336 333 329 324 316 308 299 291 284 279 274 270 266 263 261 259 257 256 255 254 253 251 250 250 249 249 248 248 248 247 246
351 351 351 350 349 350 349 349 349 349 348 348 348 348 349 350 350 352 354 355 355 355 355 355 354 353 355 356 357 358 358 358 359 360 1 2 4 6 7 7 7 6 6 6 5 5 4 4 3 1 358 354 350 347 343 339 336 332 328 323 316 308 299 292 286 280 275 270 266 263 261 259 257 256 255 254 253 251 250 250 249 248 248 247 247 246
347 348 348 347 347 348 348 348 348 348 347 348 348 349 350 350 350 351 353 354 354 353 354 354 354 354 356 356 357 357 358 359 360 0 1 3 4 6 6 7 7 7 6 6 6 6 5 4 3 2 360 356 353 349 346 343 339 335 331 327 323 316 309 301 294 287 281 276 271 267 264 260 258 256 255 254 253 252 250 249 248 248 248 247 247 246
344 346 346 347 347 347 348 348 347 347 348 348 349 350 350 350 350 350 351 353 353 352 354 354 355 356 356 356 357 357 358 360 0 1 2 3 4 5 6 7 7 8 7 7 7 7 6 5 4 3 1 359 355 352 349 346 343 340 336 332 327 323 317 311 303 295 287 281 277 272 267 264 260 258 257 256 255 253 253 251 251 250 249 249 248 247
343 344 345 346 347 347 347 346 346 347 347 348 349 349 348 349 351 350 350 351 351 352 353 354 356 357 356 355 355 356 358 0 1 1 2 2 3 4 6 7 7 8 8 7 7 7 7 6 4 4 3 1 358 354 351 349 346 344 341 336 332 327 323 318 312 305 295 287 282 277 272 268 265 262 259 258 257 255 255 254 252 251 251 250 249 248
342 342 344 346 347 346 346 345 346 347 347 348 348 347 348 350 350 350 349 349 350 352 353 354 355 357 357 355 355 356 359 0 1 1 2 2 2 4 5 7 7 8 8 8 7 7 7 6 5 4 3 2 0 357 354 351 349 346 344 340 336 332 328 323 318 312 305 297 289 282 277 273 270 267 264 261 259 257 256 255 253 252 251 250 249 248
338 340 343 344 345 345 344 344 344 345 345 346 346 347 348 349 349 349 348 347 350 351 352 353 354 356 356 355 355 356 358 360 1 1 1 2 2 3 5 6 7 7 8 8 8 7 7 7 7 5 4 3 2 359 356 353 350 348 346 344 340 336 332 328 323 317 311 305 298 290 283 279 275 271 268 265 262 260 258 256 255 254 253 252 251 249
336 339 341 341 341 342 342 342 342 342 344 344 344 346 347 347 347 348 347 347 349 351 352 353 353 354 355 355 355 356 357 358 359 360 1 1 2 2 4 5 6 7 7 8 8 8 7 7 7 7 5 4 3 2 359 355 353 350 348 346 343 340 336 333 328 322 316 311 305 299 292 285 280 276 272 269 266 264 261 259 257 256 254 253 252 251
335 337 338 337 338 338 338 339 340 341 342 342 343 344 345 345 346 347 347 347 348 349 351 352 352 353 354 356 356 355 356 357 358 359 360 0 1 2 3 4 5 6 7 7 8 8 7 7 7 7 7 5 4 3 1 358 355 353 351 348 346 343 340 337 334 329 323 317 311 306 300 293 287 281 277 273 270 267 265 262 260 258 256 254 253 252
333 333 334 334 334 334 335 337 338 340 340 341 341 343 344 344 345 346 347 348 347 348 350 350 351 352 354 356 356 355 354 356 357 358 359 360 0 1 2 3 4 5 6 7 7 7 8 7 7 7 7 7 5 4 3 1 358 355 353 351 349 346 343 341 338 335 330 325 319 313 307 301 295 288 282 278 274 271 269 266 263 260 258 256 255 253
331 331 332 332 332 332 334 335 337 338 339 340 341 343 343 344 345 346 347 348 347 347 349 350 350 352 354 355 356 354 353 355 356 357 359 359 360 1 2 2 3 4 5 6 6 7 8 8 7 7 7 8 7 5 4 3 1 358 355 353 352 349 347 344 341 339 336 331 326 320 315 309 303 297 291 285 280 276 273 270 267 264 261 258 256 255
330 331 331 331 331 332 334 334 336 337 338 339 341 342 342 343 345 346 346 346 347 347 348 349 350 351 353 354 355 354 353 354 355 357 358 359 359 0 1 1 2 3 4 5 5 6 7 7 8 7 7 7 8 7 5 4 3 -0 357 355 354 352 350 347 344 342 340 336 332 327 321 316 310 305 300 294 288 282 278 274 271 268 265 261 259 256
330 330 330 330 331 332 333 333 334 336 338 339 340 340 341 342 343 344 345 345 347 347 347 349 350 350 351 353 354 354 353 354 355 356 357 359 360 360 360 0 1 2 3 4 5 6 6 7 7 7 7 7 8 8 7 5 4 2 360 357 355 355 353 350 348 345 343 340 337 332 327 321 316 311 306 301 295 289 284 279 275 272 269 265 262 259
329 329 329 330 331 331 332 332 334 335 337 338 338 339 341 341 341 342 343 345 346 347 347 347 349 349 350 352 353 354 354 353 354 355 357 358 359 359 359 359 0 1 2 3 4 5 5 6 7 7 8 8 8 8 8 7 5 4 2 359 357 356 355 354 352 349 346 344 341 337 331 326 321 316 311 306 301 295 289 284 279 275 272 269 266 263
327 328 328 329 330 330 331 332 333 334 335 336 337 339 340 340 340 341 342 344 345 346 347 347 348 349 350 351 352 354 353 353 353 354 356 358 358 358 359 359 359 0 1 2 3 4 4 5 5 6 7 8 8 8 8 8 7 5 4 2 359 357 356 356 355 352 349 347 344 340 335 330 325 320 316 312 306 300 294 288 283 279 275 272 269 266
326 327 328 328 329 330 331 331 331 332 332 334 336 337 338 339 340 340 341 342 344 346 346 347 348 349 349 350 351 352 352 352 352 354 355 357 357 358 358 358 359 359 0 1 2 2 3 3 4 5 6 7 8 8 7 8 8 7 5 3 2 359 357 357 357 355 353 350 347 343 339 334 329 324 320 317 313 308 301 293 287 282 277 274 271 268
325 327 328 329 329 330 331 330 331 331 332 333 335 336 337 338 339 340 340 340 342 345 346 346 348 349 349 349 349 351 352 352 352 353 355 356 357 357 357 358 359 359 360 1 1 1 2 2 3 4 5 6 7 8 7 7 7 8 6 4 3 1 359 357 357 357 356 354 350 346 342 338 334 329 324 320 317 313 308 301 294 288 282 276 272 270
325 326 328 329 329 329 330 330 330 332 332 333 333 335 336 337 338 338 339 340 341 344 345 345 346 348 348 348 348 350 351 351 352 353 354 355 356 356 357 357 358 358 359 360 0 1 1 1 2 3 4 5 6 7 8 7 6 7 7 6 4 3 1 359 357 357 357 357 354 350 346 342 339 334 328 322 319 316 313 308 301 294 288 282 276 271
324 325 326 328 328 328 328 329 330 331 331 332 332 333 335 336 337 337 339 340 340 342 344 345 345 346 347 347 348 349 350 351 352 353 353 354 355 356 356 357 357 357 358 359 359 -0 0 1 1 2 2 3 4 6 7 7 6 6 7 7 6 4 3 1 358 357 357 358 357 354 350 346 343 338 332 326 320 317 314 311 306 300 293 287 281 276
324 324 324 326 327 327 327 328 328 329 330 331 331 332 333 335 336 336 337 339 340 340 343 344 344 344 346 347 347 348 350 351 351 352 352 353 354 355 355 356 356 356 357 358 358 359 360 360 360 0 1 2 3 4 6 7 6 5 5 6 7 6 4 2 0 358 357 357 358 356 354 351 347 343 337 332 326 320 316 313 310 305 298 292 286 281
323 323 323 324 325 325 325 326 327 327 329 330 330 331 332 333 335 335 336 338 339 339 340 343 344 344 345 347 347 347 349 350 350 350 351 352 353 354 355 355 355 355 356 357 357 358 358 359 359 359 0 1 2 3 4 5 6 6 5 5 6 6 5 3 2 -0 358 357 357 357 356 354 352 348 343 338 333 326 320 315 312 309 303 296 291 285
323 324 324 324 325 326 326 326 327 328 329 330 330 330 331 332 333 334 335 336 337 338 339 341 344 344 344 345 346 346 347 348 349 349 350 351 352 353 353 354 354 354 355 356 356 357 357 357 358 358 359 360 1 2 3 4 5 5 5 4 4 5 6 5 3 2 360 358 357 357 356 356 354 352 348 344 339 334 328 320 315 311 307 302 295 290
323 324 324 325 326 326 327 327 328 328 328 329 329 330 330 331 332 333 334 335 336 337 338 339 342 343 343 344 345 345 346 347 347 348 349 350 351 352 352 352 353 353 354 355 356 356 356 356 357 357 358 359 360 1 2 3 4 5 5 4 3 3 5 5 4 3 1 360 358 357 356 356 355 354 352 349 345 341 335 328 321 315 311 306 300 294
323 324 324 324 325 326 326 326 326 327 327 328 329 329 329 329 330 332 333 333 334 336 337 338 340 342 342 342 343 344 345 346 346 347 349 350 350 350 350 351 352 352 353 354 355 355 355 355 356 356 357 358 359 360 1 2 3 4 4 4 3 2 3 4 5 4 2 1 359 358 357 356 356 355 354 352 349 346 341 336 329 322 316 310 305 299
322 323 323 323 323 324 324 325 325 326 326 327 328 328 328 328 329 330 331 332 332 334 336 337 339 340 341 341 341 342 343 345 346 347 348 349 349 349 349 350 351 351 352 353 354 354 354 354 355 355 356 357 358 359 360 1 1 2 3 3 3 2 1 2 4 4 3 2 1 359 357 356 356 355 354 353 352 350 346 342 336 330 323 316 310 304
321 321 322 321 321 323 323 324 324 325 325 325 325 326 327 327 327 327 328 329 331 332 334 336 337 338 339 340 340 341 342 344 346 346 346 347 348 348 348 349 349 350 351 352 353 353 353 353 354 354 355 356 357 358 359 360 0 1 2 3 3 2 1 1 2 3 4 2 2 1 359 357 356 356 355 354 353 352 350 346 342 336 329 322 316 309
319 319 320 320 320 321 321 322 322 322 322 323 323 324 325 326 325 324 326 328 330 331 333 335 336 337 338 339 339 340 342 343 345 345 345 346 347 347 348 348 349 350 351 351 352 352 352 352 353 353 354 355 356 357 358 358 359 0 1 1 2 2 1 360 0 2 3 3 2 1 0 359 357 356 355 355 353 352 351 349 347 342 336 329 322 316
317 317 318 318 319 319 319 320 320 320 321 322 323 323 323 323 322 323 325 327 328 330 332 333 335 336 337 338 339 339 341 343 344 345 345 345 346 346 347 348 348 349 350 350 351 351 351 351 352 352 353 354 355 356 357 358 358 359 360 0 1 1 1 360 359 -0 2 3 2 1 1 360 358 356 355 355 354 353 352 350 348 346 342 336 329 322
315 316 316 317 318 318 319 320 320 320 321 321 321 320 320 322 323 323 324 326 327 329 331 332 334 335 336 338 338 339 341 342 343 344 345 345 345 345 346 347 348 348 349 349 349 350 350 350 351 351 352 353 354 355 356 357 357 358 359 359 -0 0 0 359 359 359 360 1 2 1 0 0 359 358 356 355 354 353 352 351 350 348 345 341 336 329
314 315 316 316 317 318 319 320 320 320 320 320 320 321 323 325 326 324 324 325 327 328 330 332 333 335 336 337 338 339 341 342 342 343 344 345 345 345 346 346 347 347 348 348 348 348 349 349 350 351 351 352 353 354 355 356 356 357 358 359 359 360 360 359 358 358 358 359 1 1 0 360 360 359 357 356 355 353 352 352 351 349 347 344 341 336
313 315 316 316 318 319 319 320 320 320 321 323 324 326 327 327 328 326 326 327 328 329 331 332 334 335 336 337 338 340 341 343 343 343 344 344 344 345 345 345 346 347 347 347 347 347 348 348 349 350 351 352 353 354 354 355 355 356 357 358 358 358 359 359 358 357 357 358 359 0 0 359 359 359 358 357 356 354 353 351 351 350 349 346 344 341
313 315 316 317 318 319 320 321 322 324 325 327 328 328 328 328 329 329 328 329 330 331 332 333 334 335 335 336 338 341 342 343 343 343 343 343 343 343 344 344 345 346 346 346 346 346 347 348 349 350 350 351 352 353 353 354 354 355 355 356 357 358 358 358 358 357 356 356 357 359 -0 359 358 358 359 358 357 355 353 352 351 350 349 348 346 343
314 315 316 317 318 319 321 322 324 326 326 327 327 327 328 328 329 330 329 329 331 333 334 334 334 334 335 337 340 342 342 342 343 342 342 342 342 342 343 344 345 345 345 345 345 346 347 348 349 349 350 351 351 352 352 353 353 353 354 355 356 357 357 357 357 357 356 355 356 357 359 360 359 357 358 358 358 356 354 353 351 350 349 348 347 344
315 315 316 318 319 320 322 322 323 324 324 325 326 327 327 327 328 329 330 330 332 334 334 334 334 334 336 339 341 342 342 342 342 341 341 341 341 342 343 343 344 344 344 344 345 345 346 347 348 349 350 350 351 351 352 352 352 352 353 354 355 356 356 356 357 357 356 355 355 355 356 358 359 358 357 357 358 357 355 353 352 351 350 348 347 345
315 316 317 319 319 320 322 323 323 323 325 326 326 326 326 326 327 328 331 332 333 334 333 333 333 335 338 340 341 340 341 341 340 340 340 340 341 342 342 343 343 343 343 344 344 345 346 347 347 348 349 350 350 351 351 351 351 351 352 352 353 355 355 355 356 356 356 355 354 354 354 356 358 359 358 356 356 357 356 354 352 351 350 349 348 346
317 317 318 318 319 319 321 323 323 323 325 326 326 326 326 326 327 329 333 334 334 334 334 334 336 338 340 341 340 340 340 340 340 340 340 340 341 342 342 342 342 342 343 343 344 344 345 346 347 348 349 349 350 350 350 350 350 351 351 351 352 353 354 355 355 355 355 354 353 353 353 354 356 358 358 357 356 355 355 355 353 351 350 349 348 347
317 317 317 317 318 319 321 323 323 323 324 325 325 326 328 329 332 334 335 337 337 336 337 338 339 341 341 340 340 339 339 339 339 340 340 341 341 342 342 341 341 342 342 343 343 344 344 345 346 347 348 349 349 349 350 350 350 350 350 350 351 352 353 354 354 354 354 354 353 353 352 353 354 356 358 358 357 355 355 354 353 352 350 349 349 348
315 316 317 318 319 320 321 323 323 323 324 326 328 331 333 335 338 339 339 339 339 339 340 341 342 341 340 339 339 338 338 339 339 339 340 341 341 341 341 341 341 341 341 342 342 343 343 344 345 346 347 348 348 349 349 349 349 349 349 349 350 351 352 353 353 353 354 354 353 352 352 352 352 354 356 357 357 356 355 354 353 352 350 348 348 348
316 318 319 320 321 321 322 323 324 326 329 332 334 338 340 341 342 342 341 341 341 342 343 343 341 340 339 339 338 338 338 339 339 339 340 340 340 340 340 340 340 340 341 341 341 342 343 344 345 345 346 347 347 348 348 348 348 348 348 349 349 350 351 352 352 352 353 353 353 352 351 351 352 352 353 355 357 356 355 354 354 352 350 348 347 346
319 321 323 323 323 323 325 327 329 332 339 342 342 343 345 345 345 345 344 343 343 344 343 341 340 339 339 339 338 338 338 339 339 339 339 339 339 339 339 339 339 339 340 340 341 342 343 343 344 345 345 346 346 347 347 347 347 347 347 348 348 349 350 351 351 351 352 353 352 352 351 351 351 351 351 353 355 356 356 355 354 353 351 349 347 346
322 324 325 325 326 327 329 334 337 339 346 350 348 347 347 347 347 347 346 345 344 342 341 340 339 339 339 339 338 338 338 338 338 338 338 338 338 338 338 338 338 339 339 340 341 341 342 343 343 344 344 344 345 345 346 346 345 346 346 347 348 348 349 350 351 350 351 352 352 351 351 351 351 351 351 351 352 354 355 355 354 353 352 350 348 345
325 326 328 330 332 334 336 341 344 345 349 352 352 350 349 348 347 347 346 344 342 341 340 340 340 339 339 339 338 338 338 338 338 337 337 337 337 337 337 337 338 338 339 340 341 341 342 342 342 343 343 343 344 344 344 344 344 344 345 346 347 347 347 349 350 349 350 350 351 351 351 351 351 351 350 350 350 351 353 354 354 353 352 351 349 346
330 334 338 339 341 344 346 348 348 348 350 353 353 351 350 347 346 345 343 342 341 340 340 340 339 338 338 338 339 338 338 337 337 336 336 336 336 336 336 337 337 338 339 340 340 341 341 341 341 342 342 342 342 343 343 343 343 343 343 344 346 346 346 347 349 349 348 349 350 350 350 350 350 351 350 350 349 349 350 352 353 353 352 351 349 347
343 347 351 349 349 352 354 354 353 351 350 351 351 349 348 346 344 343 342 341 341 340 340 339 338 338 338 338 338 337 337 336 336 335 335 335 335 335 336 337 338 339 339 340 340 340 340 340 340 341 341 341 341 341 342 342 342 342 342 343 344 345 345 346 347 348 347 348 349 349 349 349 350 350 350 350 350 349 349 350 351 352 352 351 350 348
356 358 359 358 355 355 355 354 353 351 348 346 346 345 345 344 343 341 341 341 340 340 339 338 338 338 338 337 336 336 335 335 334 334 334 334 335 336 336 337 338 338 338 339 339 339 339 339 339 340 340 340 340 340 340 341 341 341 341 342 343 344 344 344 346 347 346 346 348 348 348 348 349 349 350 350 350 349 349 348 349 351 352 352 350 348
360 359 359 358 354 352 350 348 347 347 345 343 342 342 342 342 341 341 340 340 339 339 338 338 338 337 336 335 335 334 334 333 334 334 334 334 335 335 336 336 337 337 337 337 337 337 338 338 338 339 339 339 339 339 339 339 340 340 340 340 342 343 343 343 344 345 345 345 346 347 347 348 348 348 349 349 349 349 349 348 348 348 350 351 351 349
355 353 353 353 351 349 348 346 344 344 344 343 342 341 341 341 340 339 339 339 338 338 337 337 336 336 335 334 333 333 333 333 334 334 334 334 334 334 334 335 335 335 335 335 336 336 336 337 337 337 337 337 337 337 338 338 339 339 338 339 341 343 342 342 343 344 344 344 345 346 347 347 347 347 348 348 348 348 348 348 348 348 348 348 349 349
Height
10681 10678 10675 10672 10669 10666 10662 10657 10652 10647 10641 10636 10630 10625 10620 10612 10605 10600 10592 10584 10576 10569 10559 10549 10540 10531 10522 10514 10504 10492 10479 10468 10455 10440 10425 10409 10394 10381 10368 10354 10340 10325 10311 10297 10283 10272 10263 10254 10246 10238 10230 10224 10219 10214 10209 10205 10201 10197 10193 10188 10184 10182 10180 10179 10177 10176 10175 10176 10176 10176 10177 10177 10179 10181 10183 10185 10187 10190 10193 10197 10202 10205 10210 10216 10222 10228
10681 10678 10675 10671 10667 10662 10658 10653 10648 10644 10639 10633 10627 10621 10617 10612 10603 10595 10588 10580 10570 10559 10550 10546 10539 10528 10520 10511 10499 10487 10475 10463 10451 10436 10422 10409 10397 10383 10368 10353 10337 10322 10309 10297 10284 10270 10259 10249 10241 10233 10225 10218 10211 10206 10201 10197 10192 10188 10184 10180 10176 10172 10170 10168 10167 10166 10164 10164 10164 10163 10163 10164 10165 10167 10169 10171 10173 10176 10178 10180 10185 10188 10192 10198 10204 10210
10681 10677 10673 10669 10664 10659 10655 10650 10644 10640 10635 10630 10625 10619 10614 10610 10603 10593 10584 10576 10566 10555 10548 10544 10537 10527 10518 10506 10494 10483 10471 10457 10445 10435 10424 10412 10397 10380 10363 10347 10334 10320 10307 10295 10283 10270 10257 10246 10237 10228 10220 10212 10205 10199 10193 10189 10184 10180 10176 10172 10168 10165 10162 10159 10157 10156 10154 10154 10153 10153 10152 10153 10155 10156 10156 10157 10159 10161 10164 10166 10170 10172 10176 10181 10186 10192
10680 10675 10671 10667 10662 10657 10652 10646 10641 10635 10630 10627 10623 10617 10610 10605 10600 10592 10582 10572 10564 10556 10550 10543 10535 10526 10516 10504 10492 10481 10469 10455 10444 10434 10422 10407 10391 10375 10359 10344 10330 10318 10306 10293 10280 10268 10255 10244 10233 10224 10216 10208 10200 10193 10186 10181 10176 10172 10168 10164 10160 10157 10154 10150 10148 10147 10145 10144 10142 10142 10142 10141 10142 10143 10143 10145 10146 10148 10149 10152 10155 10158 10162 10167 10171 10177
10677 10673 10669 10664 10660 10655 10649 10644 10638 10633 10628 10624 10618 10613 10606 10597 10591 10586 10579 10570 10562 10556 10549 10540 10532 10524 10512 10502 10491 10478 10466 10457 10446 10431 10416 10401 10387 10372 10358 10344 10331 10317 10303 10290 10276 10264 10252 10242 10231 10222 10213 10205 10197 10190 10181 10174 10169 10164 10160 10156 10153 10149 10146 10143 10140 10139 10136 10134 10133 10132 10132 10131 10132 10132 10132 10133 10135 10137 10139 10140 10141 10143 10146 10150 10156 10162
10674 10670 10666 10662 10657 10652 10647 10642 10636 10631 10625 10619 10613 10607 10600 10592 10584 10579 10574 10566 10558 10552 10545 10535 10528 10520 10507 10496 10486 10475 10464 10453 10440 10426 10412 10398 10382 10367 10355 10344 10331 10316 10301 10287 10274 10260 10248 10237 10228 10218 10209 10202 10194 10187 10179 10171 10164 10158 10153 10148 10145 10142 10139 10136 10133 10131 10128 10126 10124 10123 10122 10122 10123 10121 10120 10121 10123 10125 10127 10127 10127 10129 10130 10134 10140 10146
10672 10668 10664 10659 10654 10649 10645 10639 10634 10629 10622 10615 10609 10601 10594 10587 10580 10573 10568 10562 10555 10548 10540 10532 10522 10511 10500 10489 10479 10470 10462 10449 10435 10422 10407 10392 10377 10365 10354 10342 10328 10314 10300 10286 10272 10258 10245 10233 10223 10214 10206 10197 10190 10183 10175 10168 10161 10154 10147 10142 10137 10134 10131 10128 10126 10123 10120 10117 10116 10114 10112 10112 10111 10110 10109 10109 10111 10111 10111 10112 10113 10114 10117 10120 10125 10129
10669 10665 10661 10657 10652 10647 10642 10637 10632 10627 10620 10613 10606 10598 10592 10586 10577 10569 10563 10558 10552 10544 10535 10527 10515 10502 10492 10484 10476 10467 10456 10444 10430 10415 10401 10389 10378 10368 10355 10341 10327 10313 10299 10284 10270 10256 10244 10233 10222 10211 10202 10194 10186 10178 10171 10164 10157 10150 10143 10137 10131 10126 10123 10120 10118 10116 10113 10110 10107 10105 10104 10102 10100 10100 10100 10099 10100 10100 10100 10101 10103 10104 10106 10109 10112 10115
10665 10662 10658 10654 10650 10645 10640 10636 10631 10625 10619 10612 10605 10598 10592 10584 10574 10565 10558 10554 10549 10541 10531 10522 10512 10502 10491 10481 10475 10465 10452 10438 10425 10412 10400 10389 10379 10368 10354 10340 10326 10312 10298 10282 10268 10255 10243 10232 10221 10210 10200 10190 10181 10173 10165 10158 10151 10145 10139 10133 10126 10120 10116 10112 10110 10108 10106 10103 10100 10097 10095 10093 10092 10092 10091 10090 10090 10090 10090 10091 10092 10093 10094 10096 10100 10103
10662 10659 10656 10652 10648 10643 10638 10633 10628 10623 10617 10611 10604 10598 10589 10581 10573 10565 10556 10550 10544 10536 10526 10517 10509 10501 10492 10480 10470 10458 10446 10434 10423 10412 10402 10391 10380 10367 10353 10340 10326 10312 10298 10284 10269 10256 10244 10232 10220 10209 10198 10187 10177 10169 10161 10154 10147 10140 10134 10128 10122 10116 10110 10106 10102 10099 10097 10095 10092 10090 10087 10085 10084 10083 10082 10081 10080 10079 10079 10080 10080 10081 10082 10084 10087 10090
10660 10656 10652 10649 10645 10641 10636 10631 10625 10620 10615 10609 10604 10597 10589 10581 10574 10566 10556 10547 10539 10532 10523 10514 10503 10494 10488 10479 10466 10453 10442 10432 10424 10416 10405 10393 10381 10367 10353 10340 10326 10313 10299 10286 10273 10260 10248 10235 10223 10210 10199 10189 10179 10169 10160 10152 10144 10137 10130 10123 10118 10112 10106 10101 10096 10092 10089 10087 10084 10082 10080 10078 10076 10074 10073 10072 10071 10070 10069 10070 10070 10071 10072 10073 10075 10077
10658 10654 10650 10646 10642 10638 10634 10629 10624 10618 10612 10607 10601 10594 10587 10580 10573 10565 10555 10544 10534 10527 10519 10509 10499 10490 10483 10473 10461 10450 10440 10431 10424 10415 10405 10394 10380 10366 10353 10340 10326 10313 10300 10288 10276 10264 10251 10239 10226 10214 10201 10190 10179 10169 10159 10150 10142 10134 10126 10119 10113 10108 10102 10097 10092 10087 10083 10080 10077 10075 10073 10071 10068 10066 10065 10063 10062 10061 10060 10060 10060 10061 10062 10062 10064 10066
10656 10652 10648 10644 10639 10636 10632 10627 10621 10615 10608 10603 10597 10591 10586 10580 10573 10565 10555 10543 10531 10523 10515 10507 10500 10491 10480 10469 10458 10446 10438 10431 10421 10410 10400 10389 10377 10364 10352 10338 10325 10312 10300 10288 10278 10266 10254 10241 10228 10216 10203 10191 10178 10167 10158 10149 10140 10132 10124 10117 10110 10103 10097 10092 10087 10083 10078 10074 10071 10068 10065 10063 10061 10059 10057 10055 10053 10052 10051 10050 10050 10050 10051 10052 10053 10055
10654 10650 10646 10642 10637 10633 10629 10624 10618 10611 10605 10599 10593 10587 10581 10575 10568 10561 10554 10544 10532 10522 10514 10505 10498 10490 10478 10466 10456 10446 10436 10428 10417 10407 10396 10384 10373 10362 10349 10336 10322 10310 10299 10288 10278 10267 10255 10242 10228 10216 10204 10192 10179 10167 10157 10147 10138 10130 10122 10114 10107 10100 10094 10088 10083 10078 10073 10069 10065 10062 10059 10056 10053 10051 10049 10047 10045 10044 10042 10041 10041 10041 10041 10041 10042 10044
10652 10647 10643 10639 10634 10628 10623 10619 10614 10608 10601 10594 10587 10579 10573 10566 10559 10551 10544 10538 10530 10520 10513 10504 10494 10486 10476 10464 10454 10446 10436 10426 10415 10405 10394 10383 10372 10360 10346 10334 10323 10312 10301 10290 10279 10267 10255 10242 10229 10217 10205 10193 10180 10168 10157 10146 10136 10129 10121 10113 10105 10097 10091 10084 10079 10073 10069 10064 10060 10056 10053 10049 10046 10044 10042 10040 10038 10036 10035 10033 10032 10032 10032 10032 10032 10033
10647 10643 10638 10633 10629 10623 10617 10612 10608 10603 10597 10589 10582 10574 10568 10561 10555 10548 10540 10533 10526 10516 10508 10500 10489 10479 10471 10463 10454 10446 10435 10424 10414 10403 10392 10382 10369 10355 10344 10334 10323 10312 10301 10290 10279 10267 10255 10243 10231 10218 10205 10192 10180 10168 10156 10145 10135 10126 10118 10111 10103 10095 10088 10082 10075 10069 10064 10060 10055 10051 10047 10044 10041 10038 10035 10033 10031 10029 10027 10025 10024 10023 10023 10023 10023 10023
10645 10640 10635 10630 10624 10619 10613 10607 10602 10598 10592 10584 10578 10572 10565 10556 10550 10546 10541 10532 10524 10513 10502 10495 10487 10478 10470 10463 10455 10444 10432 10420 10409 10399 10389 10378 10365 10353 10343 10333 10323 10312 10301 10291 10280 10268 10256 10244 10232 10220 10206 10192 10179 10168 10156 10145 10135 10125 10115 10107 10100 10093 10086 10079 10072 10066 10061 10055 10051 10046 10042 10039 10035 10032 10029 10027 10024 10022 10020 10018 10016 10015 10014 10014 10013 10014
10643 10638 10632 10627 10621 10615 10610 10604 10597 10591 10586 10580 10574 10568 10561 10553 10545 10540 10537 10531 10523 10514 10503 10493 10486 10477 10466 10458 10449 10438 10427 10416 10406 10397 10386 10374 10363 10354 10343 10332 10322 10311 10299 10288 10278 10266 10254 10242 10232 10220 10207 10193 10179 10168 10158 10147 10136 10125 10115 10106 10097 10090 10082 10075 10068 10062 10056 10051 10046 10042 10038 10034 10030 10027 10024 10021 10018 10016 10013 10011 10009 10007 10006 10006 10005 10005
10641 10636 10630 10625 10619 10613 10606 10601 10595 10588 10583 10578 10570 10562 10556 10550 10542 10533 10527 10523 10518 10512 10503 10492 10482 10472 10461 10452 10443 10434 10425 10416 10407 10396 10385 10374 10365 10356 10345 10333 10322 10310 10299 10287 10273 10261 10252 10242 10231 10219 10206 10194 10181 10169 10159 10149 10138 10126 10115 10106 10097 10089 10080 10072 10065 10059 10054 10048 10042 10037 10033 10029 10025 10021 10018 10016 10013 10010 10008 10005 10003 10001 9999 9998 9997 9997
10637 10632 10627 10621 10616 10611 10603 10596 10592 10587 10581 10575 10569 10561 10554 10547 10539 10530 10520 10514 10509 10503 10496 10489 10478 10467 10457 10448 10440 10433 10425 10416 10406 10396 10385 10375 10365 10355 10345 10333 10321 10309 10299 10287 10275 10263 10252 10242 10230 10218 10207 10195 10182 10171 10159 10149 10138 10127 10116 10106 10097 10089 10080 10072 10065 10058 10052 10046 10040 10035 10030 10025 10021 10016 10012 10009 10007 10004 10002 9999 9997 9995 9993 9991 9989 9988
10632 10628 10623 10617 10611 10607 10602 10594 10587 10581 10574 10569 10565 10559 10552 10544 10537 10529 10519 10510 10504 10497 10488 10480 10473 10463 10454 10446 10438 10430 10421 10412 10403 10393 10383 10373 10364 10353 10342 10331 10320 10308 10296 10285 10275 10264 10252 10240 10228 10217 10206 10194 10183 10171 10159 10147 10137 10128 10118 10107 10097 10088 10080 10072 10065 10058 10051 10044 10038 10032 10027 10022 10017 10013 10008 10004 10001 9998 9996 9993 9991 9989 9987 9985 9982 9981
10629 10625 10620 10615 10607 10601 10597 10591 10584 10577 10569 10562 10557 10554 10548 10540 10532 10526 10518 10507 10498 10492 10483 10473 10467 10463 10454 10444 10435 10426 10417 10408 10399 10388 10379 10370 10361 10351 10340 10328 10317 10306 10295 10284 10273 10263 10251 10239 10227 10216 10204 10193 10183 10171 10159 10147 10137 10127 10118 10107 10097 10087 10079 10071 10064 10057 10049 10043 10036 10031 10025 10019 10014 10009 10005 10001 9997 9994 9991 9988 9985 9983 9980 9978 9976 9974
10626 10621 10617 10613 10606 10598 10593 10588 10581 10575 10569 10560 10552 10547 10542 10535 10528 10520 10513 10504 10494 10487 10482 10472 10462 10458 10452 10441 10430 10421 10413 10404 10394 10384 10376 10368 10359 10349 10338 10326 10314 10303 10293 10283 10273 10262 10250 10238 10226 10215 10204 10193 10182 10171 10160 10148 10136 10126 10117 10107 10097 10087 10078 10069 10062 10054 10047 10040 10034 10029 10023 10017 10011 10006 10002 9997 9994 9990 9987 9983 9981 9978 9975 9972 9970 9968
10621 10617 10614 10611 10605 10596 10590 10585 10579 10573 10568 10561 10550 10542 10537 10532 10525 10516 10508 10501 10491 10482 10479 10473 10460 10451 10445 10436 10424 10415 10407 10398 10389 10382 10374 10366 10357 10346 10335 10323 10313 10303 10292 10281 10271 10260 10249 10238 10227 10216 10205 10194 10182 10170 10159 10148 10136 10125 10115 10106 10097 10087 10078 10069 10060 10052 10045 10038 10031 10026 10021 10015 10009 10004 9999 9994 9990 9986 9983 9979 9976 9973 9970 9967 9965 9963
10614 10610 10607 10605 10602 10596 10588 10583 10578 10571 10565 10559 10550 10540 10533 10528 10521 10513 10505 10498 10490 10480 10474 10471 10461 10446 10437 10431 10422 10412 10403 10395 10387 10380 10372 10364 10354 10343 10332 10322 10313 10303 10293 10282 10270 10259 10249 10239 10229 10217 10206 10194 10182 10170 10158 10147 10136 10124 10113 10104 10096 10087 10078 10068 10060 10051 10043 10036 10029 10022 10017 10012 10007 10001 9996 9991 9987 9983 9979 9975 9972 9969 9966 9963 9960 9958
10609 10602 10597 10594 10592 10587 10581 10575 10570 10563 10557 10551 10546 10536 10527 10520 10515 10508 10501 10494 10488 10479 10467 10463 10460 10449 10437 10430 10422 10412 10402 10395 10387 10379 10370 10360 10350 10339 10330 10322 10313 10303 10293 10282 10271 10259 10247 10237 10227 10216 10205 10193 10181 10170 10158 10146 10135 10124 10113 10103 10093 10086 10078 10068 10059 10051 10042 10034 10027 10020 10014 10008 10004 9999 9994 9988 9983 9979 9975 9972 9968 9965 9962 9959 9956 9953
10606 10599 10590 10585 10582 10578 10571 10565 10559 10554 10549 10543 10538 10531 10521 10513 10507 10503 10496 10488 10482 10476 10465 10456 10452 10448 10438 10429 10422 10413 10404 10395 10387 10379 10369 10358 10347 10338 10330 10321 10312 10302 10292 10281 10270 10258 10246 10235 10224 10213 10202 10191 10180 10170 10159 10147 10135 10125 10114 10103 10092 10084 10076 10067 10059 10050 10041 10033 10026 10019 10012 10006 10000 9996 9991 9986 9980 9976 9972 9968 9965 9961 9958 9955 9952 9949
10604 10598 10589 10580 10577 10573 10567 10560 10554 10548 10543 10537 10531 10525 10517 10508 10501 10496 10491 10484 10477 10473 10467 10456 10447 10443 10436 10427 10421 10414 10406 10397 10388 10378 10368 10357 10347 10338 10329 10319 10310 10300 10290 10279 10267 10256 10245 10234 10222 10211 10200 10190 10179 10168 10158 10147 10136 10125 10115 10104 10093 10082 10074 10066 10058 10049 10041 10033 10025 10018 10011 10004 9998 9993 9988 9983 9978 9973 9969 9965 9961 9958 9954 9951 9948 9945
10602 10597 10590 10580 10573 10569 10562 10556 10550 10542 10535 10530 10525 10519 10513 10506 10498 10492 10488 10482 10475 10468 10463 10456 10447 10440 10435 10427 10419 10412 10404 10396 10387 10376 10366 10358 10348 10337 10327 10317 10308 10299 10288 10277 10266 10255 10244 10233 10221 10211 10200 10190 10179 10168 10157 10146 10136 10126 10115 10105 10094 10083 10073 10064 10056 10048 10040 10032 10024 10017 10009 10003 9996 9990 9985 9980 9976 9971 9966 9962 9958 9954 9951 9948 9945 9942
10600 10594 10590 10581 10572 10567 10560 10551 10545 10539 10532 10526 10521 10515 10509 10502 10494 10489 10486 10480 10473 10465 10459 10454 10447 10438 10431 10424 10416 10408 10400 10392 10384 10374 10365 10357 10347 10336 10325 10315 10306 10296 10285 10275 10264 10254 10243 10232 10221 10210 10200 10190 10180 10169 10158 10146 10136 10126 10116 10105 10095 10084 10073 10064 10055 10048 10040 10032 10024 10017 10009 10002 9995 9989 9983 9977 9973 9968 9964 9960 9955 9951 9948 9945 9942 9939
10596 10591 10587 10581 10571 10565 10560 10551 10544 10538 10532 10524 10518 10512 10506 10498 10489 10483 10481 10476 10469 10463 10456 10450 10445 10438 10430 10422 10413 10404 10397 10388 10382 10374 10364 10354 10345 10335 10325 10314 10302 10292 10282 10272 10263 10253 10242 10232 10221 10210 10200 10190 10179 10169 10158 10147 10136 10126 10116 10106 10095 10084 10074 10063 10054 10046 10039 10031 10023 10016 10009 10002 9995 9988 9982 9976 9970 9965 9961 9957 9953 9949 9945 9941 9938 9935
10591 10586 10582 10578 10571 10562 10557 10551 10542 10535 10529 10521 10514 10508 10502 10497 10487 10477 10473 10470 10463 10459 10454 10447 10441 10435 10427 10420 10410 10401 10393 10385 10378 10372 10362 10351 10342 10332 10323 10313 10301 10290 10280 10271 10261 10252 10242 10232 10222 10211 10201 10190 10179 10168 10158 10147 10137 10126 10116 10106 10095 10085 10074 10063 10053 10045 10037 10030 10022 10015 10008 10001 9994 9988 9981 9975 9969 9964 9959 9955 9950 9946 9942 9938 9935 9932
10585 10581 10576 10573 10568 10560 10552 10546 10537 10530 10524 10517 10511 10505 10499 10493 10484 10472 10466 10464 10458 10453 10450 10444 10437 10431 10423 10416 10408 10399 10391 10383 10374 10367 10359 10350 10340 10330 10320 10311 10300 10290 10279 10269 10259 10250 10241 10232 10222 10212 10201 10191 10180 10169 10158 10148 10137 10127 10116 10105 10095 10085 10074 10064 10053 10044 10036 10029 10021 10014 10007 10001 9994 9987 9981 9974 9968 9963 9958 9953 9948 9944 9940 9936 9932 9929
10579 10575 10569 10564 10562 10556 10548 10542 10533 10524 10520 10514 10506 10500 10493 10487 10480 10468 10460 10459 10455 10449 10445 10440 10434 10428 10420 10413 10406 10398 10390 10381 10371 10362 10354 10346 10337 10328 10317 10308 10299 10290 10278 10268 10258 10249 10240 10231 10221 10211 10200 10190 10180 10169 10158 10148 10138 10128 10117 10106 10095 10085 10075 10064 10054 10044 10036 10028 10021 10013 10006 10000 9993 9986 9980 9973 9967 9961 9956 9951 9947 9942 9938 9933 9930 9926
10574 10570 10564 10558 10554 10549 10542 10537 10530 10520 10513 10507 10499 10492 10487 10482 10478 10469 10458 10453 10450 10444 10439 10435 10429 10423 10417 10410 10404 10396 10388 10379 10369 10359 10351 10343 10334 10325 10316 10307 10298 10289 10278 10268 10259 10249 10239 10230 10219 10209 10198 10188 10177 10167 10157 10147 10137 10127 10118 10107 10097 10086 10075 10065 10055 10045 10036 10028 10020 10013 10005 9998 9992 9986 9979 9973 9966 9960 9954 9949 9944 9940 9936 9932 9927 9924
10568 10564 10559 10552 10547 10543 10536 10529 10524 10515 10507 10501 10494 10489 10484 10480 10477 10470 10459 10451 10446 10441 10435 10430 10425 10420 10414 10408 10402 10395 10386 10378 10369 10359 10350 10341 10333 10325 10317 10308 10297 10287 10279 10270 10260 10249 10239 10229 10219 10209 10198 10187 10176 10166 10156 10146 10136 10126 10117 10107 10097 10086 10076 10066 10056 10046 10036 10028 10020 10013 10005 9997 9990 9985 9979 9972 9966 9960 9954 9948 9942 9937 9933 9930 9926 9922
10561 10556 10552 10546 10540 10536 10531 10525 10519 10513 10505 10499 10494 10489 10483 10477 10472 10468 10460 10451 10444 10439 10433 10427 10422 10418 10412 10406 10399 10393 10385 10378 10371 10362 10352 10343 10334 10325 10316 10308 10298 10288 10278 10269 10259 10249 10238 10227 10217 10207 10197 10187 10176 10165 10155 10145 10135 10125 10116 10106 10096 10087 10076 10066 10057 10047 10037 10028 10019 10012 10006 9998 9990 9983 9977 9971 9965 9959 9953 9947 9942 9936 9931 9927 9924 9920
10555 10548 10544 10539 10533 10528 10524 10519 10515 10511 10504 10497 10491 10485 10479 10472 10467 10463 10458 10450 10443 10436 10430 10424 10420 10415 10409 10402 10395 10390 10384 10376 10369 10361 10353 10343 10334 10324 10314 10305 10296 10286 10275 10265 10255 10246 10236 10226 10215 10206 10196 10186 10176 10165 10154 10144 10134 10124 10115 10106 10096 10086 10076 10066 10057 10047 10037 10028 10019 10011 10004 9998 9991 9982 9975 9969 9964 9959 9953 9947 9941 9936 9930 9925 9921 9918
10548 10543 10536 10531 10526 10521 10516 10510 10504 10500 10497 10491 10485 10479 10473 10467 10462 10458 10454 10449 10442 10436 10429 10423 10417 10411 10405 10398 10391 10384 10379 10372 10364 10356 10348 10339 10330 10320 10310 10300 10290 10281 10271 10260 10251 10241 10232 10223 10213 10204 10194 10184 10175 10165 10155 10145 10135 10125 10115 10105 10095 10086 10076 10066 10056 10047 10038 10028 10019 10010 10002 9996 9990 9982 9974 9967 9961 9956 9951 9946 9941 9935 9929 9924 9919 9915
10543 10537 10532 10526 10521 10516 10513 10508 10499 10491 10487 10483 10478 10473 10468 10462 10456 10452 10449 10446 10440 10434 10427 10420 10414 10407 10400 10393 10386 10379 10371 10364 10357 10349 10341 10332 10324 10314 10304 10294 10284 10275 10266 10256 10247 10238 10228 10219 10209 10200 10191 10181 10172 10163 10154 10144 10135 10125 10114 10105 10095 10085 10076 10066 10056 10046 10037 10028 10019 10010 10002 9994 9987 9981 9974 9966 9959 9953 9948 9944 9939 9934 9929 9923 9918 9913
10540 10534 10527 10522 10517 10511 10507 10505 10499 10489 10482 10477 10472 10467 10462 10457 10451 10445 10441 10437 10433 10428 10422 10415 10408 10402 10395 10388 10381 10373 10365 10357 10349 10341 10333 10325 10316 10307 10298 10289 10280 10271 10261 10252 10243 10234 10225 10216 10206 10197 10188 10179 10169 10160 10151 10142 10133 10123 10113 10103 10094 10085 10075 10066 10056 10046 10036 10027 10018 10010 10001 9993 9985 9979 9973 9966 9959 9952 9945 9940 9936 9931 9927 9922 9917 9912
10536 10531 10525 10518 10513 10508 10502 10498 10495 10489 10481 10474 10468 10463 10457 10451 10447 10442 10436 10431 10426 10420 10415 10410 10403 10397 10391 10384 10376 10369 10360 10352 10344 10336 10327 10319 10310 10302 10294 10285 10276 10267 10258 10249 10239 10230 10221 10212 10203 10194 10185 10176 10167 10157 10148 10139 10131 10121 10112 10102 10092 10083 10074 10064 10055 10045 10036 10027 10018 10008 10000 9992 9984 9977 9971 9965 9958 9951 9945 9939 9933 9928 9923 9919 9914 9910
10529 10526 10521 10514 10507 10502 10497 10492 10487 10484 10478 10470 10462 10458 10454 10447 10442 10437 10432 10426 10421 10416 10411 10405 10399 10393 10386 10379 10371 10363 10356 10348 10339 10331 10323 10314 10306 10298 10290 10281 10272 10263 10254 10245 10236 10226 10217 10208 10199 10190 10181 10172 10163 10154 10145 10136 10127 10119 10110 10100 10090 10081 10072 10063 10054 10045 10036 10027 10018 10008 9999 9990 9982 9975 9968 9963 9957 9950 9944 9938 9932 9927 9921 9916 9911 9907
10523 10519 10515 10508 10500 10494 10490 10486 10479 10474 10472 10466 10457 10451 10448 10444 10439 10434 10429 10423 10418 10413 10408 10403 10396 10389 10382 10374 10366 10358 10351 10343 10335 10327 10319 10310 10302 10294 10286 10278 10269 10260 10250 10241 10232 10222 10213 10204 10194 10185 10176 10167 10158 10150 10141 10132 10123 10115 10107 10098 10088 10079 10070 10061 10053 10044 10035 10027 10018 10009 10000 9990 9981 9973 9966 9960 9954 9949 9943 9937 9931 9926 9920 9914 9909 9904
10519 10514 10509 10503 10495 10487 10481 10478 10472 10466 10464 10461 10455 10448 10443 10439 10435 10431 10427 10422 10416 10410 10405 10399 10392 10385 10378 10371 10363 10355 10347 10339 10331 10322 10315 10307 10298 10290 10281 10273 10265 10256 10247 10237 10228 10218 10209 10200 10190 10181 10172 10163 10155 10146 10137 10128 10119 10111 10103 10095 10086 10077 10068 10059 10051 10042 10034 10026 10017 10009 10000 9991 9982 9972 9964 9957 9951 9946 9942 9936 9930 9925 9919 9913 9908 9902
10514 10509 10505 10500 10494 10487 10479 10473 10468 10463 10459 10456 10452 10447 10442 10437 10432 10428 10424 10419 10413 10407 10401 10394 10387 10381 10374 10368 10360 10351 10343 10336 10328 10319 10311 10303 10295 10286 10277 10269 10260 10252 10243 10233 10224 10214 10204 10196 10187 10177 10168 10159 10150 10142 10133 10124 10115 10107 10098 10091 10083 10075 10066 10057 10049 10041 10032 10024 10016 10008 9999 9991 9983 9974 9964 9956 9949 9943 9938 9934 9929 9923 9918 9913 9907 9901
10511 10506 10501 10496 10491 10487 10481 10474 10468 10462 10459 10456 10452 10447 10443 10437 10431 10425 10421 10416 10410 10404 10397 10390 10384 10377 10370 10363 10356 10348 10339 10331 10324 10316 10307 10299 10291 10282 10273 10264 10255 10247 10238 10229 10219 10210 10200 10191 10182 10173 10164 10155 10146 10138 10129 10121 10111 10102 10093 10086 10078 10071 10063 10055 10047 10038 10030 10022 10015 10006 9998 9990 9982 9974 9965 9956 9948 9941 9935 9931 9926 9921 9916 9911 9906 9900
10510 10506 10502 10495 10489 10485 10482 10476 10470 10462 10457 10453 10450 10445 10441 10435 10429 10423 10418 10412 10407 10401 10394 10387 10380 10373 10365 10357 10351 10344 10335 10327 10320 10311 10302 10293 10285 10277 10268 10258 10249 10241 10232 10223 10214 10205 10196 10187 10178 10169 10160 10151 10142 10134 10125 10116 10107 10098 10089 10081 10073 10065 10058 10051 10043 10036 10028 10020 10013 10005 9997 9989 9981 9974 9966 9957 9948 9940 9933 9928 9924 9919 9914 9909 9904 9899
10509 10506 10502 10497 10491 10486 10482 10478 10474 10467 10459 10453 10448 10444 10440 10435 10429 10423 10416 10410 10403 10397 10391 10384 10376 10368 10360 10353 10346 10339 10332 10323 10315 10306 10296 10287 10279 10270 10261 10252 10243 10234 10226 10217 10209 10200 10192 10183 10174 10165 10156 10147 10138 10129 10121 10112 10103 10094 10085 10076 10068 10060 10053 10046 10039 10032 10025 10017 10010 10003 9996 9988 9980 9972 9965 9957 9950 9941 9932 9924 9919 9915 9912 9907 9902 9896
10508 10504 10500 10496 10491 10486 10481 10476 10473 10469 10463 10456 10449 10443 10438 10432 10426 10420 10413 10406 10399 10392 10385 10379 10372 10365 10357 10349 10341 10335 10327 10318 10310 10301 10291 10280 10271 10263 10255 10246 10237 10228 10219 10211 10203 10195 10186 10178 10169 10160 10152 10143 10133 10124 10116 10108 10099 10090 10080 10072 10065 10056 10048 10041 10034 10028 10021 10014 10007 10000 9993 9985 9978 9970 9963 9956 9949 9942 9934 9925 9917 9911 9907 9904 9900 9895
10504 10500 10497 10493 10488 10482 10477 10471 10466 10462 10458 10452 10445 10439 10433 10427 10421 10415 10408 10401 10394 10386 10379 10373 10367 10361 10354 10346 10337 10329 10321 10313 10304 10295 10286 10275 10265 10256 10248 10240 10231 10223 10214 10205 10197 10189 10180 10172 10164 10155 10147 10138 10129 10120 10111 10103 10094 10085 10076 10068 10061 10053 10044 10036 10029 10023 10016 10009 10003 9996 9989 9981 9974 9967 9960 9953 9946 9940 9934 9927 9919 9910 9903 9899 9896 9893